Weather Service Report


838 
ASUS41 KAKQ 211210
RWRAKQ

REGIONAL WEATHER ROUNDUP
NATIONAL WEATHER SERVICE WAKEFIELD VA
800 AM EDT THU AUG 21 2014

Note: "fair" indicates few or no clouds below 12,000 feet with no
significant weather and/or obstructions to visibility. * = Denotes
station may not report precipitation (e.g., rain,snow,etc.),
thunder or fog.

VAZ042-051-052>054-056-211300-
NORTHERN VIRGINIA
  
CITY           SKY/WX    TMP DP  RH WIND       PRES   REMARKS
WASH NATIONAL  MOSUNNY   73  67  81 CALM      30.05R                  
DULLES         FOG       66  65  96 CALM      30.05S VSB 1/2          
FORT BELVOIR   MOSUNNY   68  66  93 W2        30.06R                  
QUANTICO       MOSUNNY   68  65  90 NW5       30.06R                  
FREDERICKSBRG* MOSUNNY   68  68 100 CALM      30.05R                  
STAFFORD*      CLOUDY    66  66 100 CALM      30.09S FOG              
WARRENTON      FOG       70  70 100 CALM      30.05R VSB 1/4          
CULPEPER*      FOG      N/A N/A N/A SW3       30.07R VSB 1/2          
MANASSAS*      FOG       66  66 100 CALM      30.05R VSB 3/4          
LEESBURG*      FOG       68  68 100 CALM      30.06S VSB 1/2          
WINCHESTER     CLOUDY    70  68  94 CALM      30.06R FOG              
$$

VAZ048-049-060>072-079>083-211300-
CENTRAL AND SOUTH CENTRAL VIRGINIA...AND NORTH CENTRAL NORTH CAROLINA
  
CITY           SKY/WX    TMP DP  RH WIND       PRES   REMARKS
RICHMOND       PTSUNNY   73  70  90 CALM      30.05R FOG              
CHESTERFIELD*  SUNNY    N/A N/A N/A NW3       30.07R                  
HANOVER        SUNNY     69  68  96 W3        30.07R FOG              
TAPPAHANNOCK*  CLOUDY    72  69  92 CALM      30.06R FOG              
CHARLOTTSVILLE FOG       66  65  96 CALM      30.07R VSB 1/2          
ORANGE*        FOG       68  66  94 CALM      30.08R VSB 1/2          
LOUISA*        CLOUDY    66  66 100 CALM      30.06R FOG              
FARMVILLE*     PTSUNNY   68  66  94 CALM      30.05S FOG              
SOUTH HILL*    SUNNY     73  73 100 N3        30.11R FOG              
ROANOKE RAPIDS SUNNY     72  72 100 CALM      30.05R FOG              
RALEIGH        MOSUNNY   73  71  93 CALM      30.07R                  
$$

VAZ088>098-211300-
SOUTHEAST VIRGINIA
  
CITY           SKY/WX    TMP DP  RH WIND       PRES   REMARKS
NORFOLK        PTSUNNY   76  73  91 SW6       30.03R                  
VIRGINIA BEACH PTSUNNY   78  75  90 S7        30.02R                  
NORFOLK NAVAL  PTSUNNY   78  74  87 SW5       30.04R                  
WEST POINT*    PTSUNNY   76  73  88 CALM      30.06R                  
NEWPORT NEWS   CLOUDY    79  73  82 SW3       30.04R                  
LANGLEY AFB    CLOUDY    76  76 100 VRB5      30.03R                  
FORT EUSTIS    CLOUDY    73  73 100 SW2       30.02R FOG              
WILLIAMSBURG*  CLOUDY    75  73  94 CALM      30.05R                  
FRANKLIN*      CLOUDY    73 N/A N/A CALM      30.04R VSB 1/2          
WAKEFIELD      FOG       73  71  93 CALM      30.05R VSB 1/4          
$$

VAZ020-022-025-037-045-211300-
WESTERN AND SOUTHWEST VIRGINIA
  
CITY           SKY/WX    TMP DP  RH WIND       PRES   REMARKS
STAUNTON*      FOG       65  64  96 CALM      30.11S VSB<1/4          
HOT SPRINGS VA SUNNY    N/A N/A N/A W9        30.23S                  
LYNCHBURG      FOG       70  70 100 CALM      30.10R VSB 3/4          
DANVILLE       SUNNY     72  70  93 W5        30.09R                  
MARTINSVILLE   SUNNY     69  69  99 CALM      30.13S                  
ROANOKE        MOSUNNY   74  64  71 CALM      30.12R                  
BLACKSBURG     SUNNY     72  66  83 CALM      30.19R                  
DUBLIN*        SUNNY     68  67  96 SW3       30.19S                  
MARION*        PTSUNNY   66  64  91 W9        30.24R FOG              
HILLSVILLE*    SUNNY     65  62  91 NW10      30.20S                  
RICHLANDS*     FOG       65  64  94 CALM      30.23R VSB<1/4          
WISE*          MOSUNNY   64  64 100 SE3       30.23R                  
ABINGDON*      MOSUNNY   67  67  99 CALM      30.20S FOG              
$$

MDZ021>025-VAZ099-100-211300-
SOUTHERN MARYLAND AND THE DELMARVA PENINSULA
  
CITY           SKY/WX    TMP DP  RH WIND       PRES   REMARKS
PATUXENT RIVER MOSUNNY   75  72  90 SW5       30.04R                  
BAY BRIDGE APT   N/A     72  68  88 SE7       30.04R                  
LEONARDTOWN    SUNNY     73  70  88 SW3       30.06R                  
DOVER          SUNNY     71  71 100 SE3       30.03R                  
GEORGETOWN     CLOUDY    71  67  87 S9        30.05S                  
EASTON         MOSUNNY   72  72 100 CALM      30.08S                  
CAMBRIDGE      SUNNY     72  68  88 E3        30.04R                  
SALISBURY      PTSUNNY   73  67  81 CALM      30.05R                  
OCEAN CITY     PTSUNNY   74  72  93 CALM      30.05R                  
WALLOPS ISLAND CLOUDY    77  73  87 S5        30.05R                  
ACCOMACK*      CLOUDY    73  72  94 CALM      30.04R                  
$$

NCZ012>017-030>032-211300-
EASTERN NORTH CAROLINA
  
CITY           SKY/WX    TMP DP  RH WIND       PRES   REMARKS
ELIZABETH CITY MOSUNNY   77  76  96 SE5       30.03R FOG              
AHOSKIE*       CLOUDY    72  71  98 CALM      30.04S                  
EDENTON*       RAIN      78  76  95 W9        30.04R                  
CURRITUCK*     PTSUNNY   78  75  88 S3        30.04R                  
KILL DEVIL HLS MOSUNNY   79  76  93 SW3       30.04R                  
MANTEO         MOSUNNY   79  75  89 S7        30.05R                  
CAPE HATTERAS  SUNNY     80  76  87 SW5       30.05R                  
GOLDSBORO      SUNNY     75  75  99 W1        30.03R                  
WASHINGTON     MOSUNNY   75  73  96 CALM      30.05R                  
GREENVILLE     SUNNY     77  73  88 CALM      30.06R FOG              
NEW BERN       MOSUNNY   77  75  93 CALM      30.06R FOG              
WILMINGTON     FOG      N/A N/A N/A CALM      30.04R VSB 1/4          
$$

VAZ048-211300-
ELSEWHERE
  
CITY           SKY/WX    TMP DP  RH WIND       PRES   REMARKS
HARRISBURG PA  PTSUNNY   70  66  87 E3        30.05R                  
BALTIMORE      LGT RAIN  70  68  93 CALM      30.05R                  
ANNAPOLIS      PTSUNNY   75  71  87 S5        30.04R                  
ANDREWS AFB    DRIZZLE   72  70  94 CALM      30.06R                  
WILMINGTON DE  MOSUNNY   72  67  84 CALM      30.06R                  
PHILADELPHIA   PTSUNNY   72  65  78 SE5       30.06R                  
WILDWOOD NJ*   SUNNY     70  64  83 CALM      30.06R                  
ATLANTIC CITY  SUNNY     70  66  87 CALM      30.06R                  
HENDERSON NC   SUNNY     70  68  93 CALM      30.07S                  
GREENSBORO     PTSUNNY   76  65  68 CALM      30.10R                  
ROCKY MOUNT    PTSUNNY   75  73  93 CALM      30.05R FOG              
FAYETTEVILLE   SUNNY     79  74  84 NW6       30.05R                  
CHARLOTTE      MOSUNNY   72  66  81 NW3       30.10R                  
$$

VAZ100-211300-
MARINE
  
STATION/POSITION TIME  TEMP    WIND        PRES    WAVE   SWELL
                       AIR SEA DIR/SP/G            HT/PER HT/PER
                 (UTC) (F)     (DEG/KT/KT) (MB)    (FT/S) (FT/S)
44066 TX TWR #4  1200   71 72   20/ 12/ 14 1017.2R   3/ 6   2/ 6
CAPE MAY NJ      1200   73 79  110/  2/  2 1017.0R
LEWES DE         1200   73 75  160/  3/  4 1017.2R
15NM E FENWICK I 1200   75 75              1017.4R   3/ 6
OCEAN-CITY-INLET 1200   74 75  100/  3/  3 1017.0R
WACHAPREAGUE VA  1200   76 80  160/  4/  5 1017.1R
THOMAS POINT MD  1200   73 78  130/  7/  7 1017.7R
GOOSES REEF MD   1200   76     260/  6/  6 1017.6R
COVE POINT MD    1200   77     240/  5/  5 1017.0R
SOLOMONS ISLAND  1200      80                N/A
BISHOPS HEAD MD  1200   74 78  110/  6/  7 1016.6R
PINEY POINT MD   1200          270/  5/  6   N/A
POTOMAC MD       1200   76     260/  4/  6 1016.4S
CAMBRIDGE MD     1200   72 78  100/  4/  5 1016.9R
LEWISETTA VA     1200   75 79  280/  4/  5 1016.9R
RAPPAHANNOCK LGT 1200          170/  6/  7 1017.3R
STINGRAY PT      1200   77     240/  6/  8 1017.4R
YORK RVR RNG VA  1200   76     260/  5/  7 1016.4R
YORKTOWN VA      1200   75 80  230/  3/  3 1016.7R
JAMESTOWN VA     1200   74     360/  2/  4   N/A
DOMINION TERM VA 1200   75     220/  3/  4 1016.9R
KIPTOPEKE VA     1200      81  190/  8/ 10   N/A
CHES BAY BRIDGE  1200   76 78  180/  5/  7 1016.2S
CAPE HENRY VA    1200   77     170/  8/ 10 1015.4R
CHESAPEAKE LGHT  1100   77     170/ 10/ 11 1017.2R
WILLOUBY STN VA  1200   76                 1015.6S
S CRANEY ISL VA  1200          200/  3/  4 1016.5F
CAPE HENRY BUOY  1200      78                N/A     2/ 7
1ST LANDING BUOY 1200   78     190/  8/ 10 1016.4R
CAPE CHARLES BUO 1200      77                N/A     2/ 7   2/ 7
OFFSHORE WE BUOY 1200      77                N/A     2/ 6   2/ 6
64NM E OF VA BCH 1200   77 78  170/  4/  6 1016.8R   2/ 7   2/ 7
DUCK PIER NC     1200   79 78  180/  6/  7 1016.5R
44056 DUCK FRF   1200                        N/A     2/ 7
OREGON INLET NC  1200   80 81  190/  6/  8 1017.2R
HATTERAS NC      1200   82 81  210/  2/  4 1018.1R
DIAMOND SHLS NC  1200   80     180/  6/  8 1017.4R   3/ 8   2/ 8
CAPE LOOKOUT NC  1100   80     210/  4/  5 1017.1R
$$

Return to Home page


Western Regional Climate Center, wrcc@dri.edu